Time,TemperatureF,DewpointF,PressureIn,WindDirection,WindDirectionDegrees,WindSpeedMPH,WindSpeedGustMPH,Humidity,HourlyPrecipIn,Conditions,Clouds,dailyrainin,SoftwareType,DateUTC
2013-11-03 00:01:00,45.1,43.2,30.23,North,5,1.0,1.0,93,0.00,,,0.00,WeatherCatV1.23B16,2013-11-03 05:01:00,
2013-11-03 00:06:00,45.1,43.2,30.23,North,5,0.0,0.0,93,0.00,,,0.00,WeatherCatV1.23B16,2013-11-03 05:06:00,
2013-11-03 00:11:00,45.0,43.1,30.23,North,5,1.0,1.0,93,0.00,,,0.00,WeatherCatV1.23B16,2013-11-03 05:11:00,
2013-11-03 00:16:00,45.0,43.1,30.23,North,5,0.0,0.0,93,0.00,,,0.00,WeatherCatV1.23B16,2013-11-03 05:16:00,
2013-11-03 00:21:00,44.9,43.0,30.23,North,5,0.0,0.0,93,0.00,,,0.00,WeatherCatV1.23B16,2013-11-03 05:21:00,
2013-11-03 00:26:00,44.8,42.9,30.23,North,5,0.0,0.0,93,0.00,,,0.00,WeatherCatV1.23B16,2013-11-03 05:26:00,
2013-11-03 00:31:00,44.7,42.8,30.23,North,5,0.0,0.0,93,0.00,,,0.00,WeatherCatV1.23B16,2013-11-03 05:31:00,
2013-11-03 00:36:00,44.6,42.7,30.22,North,5,0.0,0.0,93,0.00,,,0.00,WeatherCatV1.23B16,2013-11-03 05:36:00,
2013-11-03 00:41:00,44.6,43.0,30.23,North,5,0.0,0.0,94,0.00,,,0.00,WeatherCatV1.23B16,2013-11-03 05:41:00,
2013-11-03 00:46:00,44.6,43.0,30.23,North,5,0.0,0.0,94,0.00,,,0.00,WeatherCatV1.23B16,2013-11-03 05:46:00,
2013-11-03 00:51:00,44.5,42.9,30.23,North,5,0.0,0.0,94,0.00,,,0.00,WeatherCatV1.23B16,2013-11-03 05:51:00,
2013-11-03 00:56:00,44.4,42.5,30.23,North,5,0.0,0.0,93,0.00,,,0.00,WeatherCatV1.23B16,2013-11-03 05:56:00,
2013-11-03 01:01:00,44.3,42.7,30.23,North,5,0.0,0.0,94,0.00,,,0.00,WeatherCatV1.23B16,2013-11-03 06:01:00,
2013-11-03 01:06:00,44.2,42.6,30.23,North,5,0.0,0.0,94,0.00,,,0.00,WeatherCatV1.23B16,2013-11-03 06:06:00,
2013-11-03 01:11:00,44.2,42.6,30.23,North,5,0.0,0.0,94,0.00,,,0.00,WeatherCatV1.23B16,2013-11-03 06:11:00,
2013-11-03 01:16:00,44.2,42.3,30.24,North,5,0.0,0.0,93,0.00,,,0.00,WeatherCatV1.23B16,2013-11-03 06:16:00,
2013-11-03 01:21:00,44.3,42.7,30.24,North,5,0.0,0.0,94,0.00,,,0.00,WeatherCatV1.23B16,2013-11-03 06:21:00,
2013-11-03 01:26:00,44.3,42.7,30.24,North,5,0.0,0.0,94,0.00,,,0.00,WeatherCatV1.23B16,2013-11-03 06:26:00,
2013-11-03 01:31:00,44.3,42.7,30.24,North,5,0.0,0.0,94,0.00,,,0.00,WeatherCatV1.23B16,2013-11-03 06:31:00,
2013-11-03 01:36:00,44.3,42.7,30.24,North,5,1.0,1.0,94,0.00,,,0.00,WeatherCatV1.23B16,2013-11-03 06:36:00,
2013-11-03 01:41:00,44.3,42.7,30.24,North,5,0.0,0.0,94,0.00,,,0.00,WeatherCatV1.23B16,2013-11-03 06:41:00,
2013-11-03 01:46:00,44.3,42.7,30.24,North,5,0.0,0.0,94,0.00,,,0.00,WeatherCatV1.23B16,2013-11-03 06:46:00,
2013-11-03 01:51:00,44.4,42.8,30.24,North,5,0.0,0.0,94,0.00,,,0.00,WeatherCatV1.23B16,2013-11-03 06:51:00,
2013-11-03 01:56:00,44.4,42.8,30.24,North,5,0.0,0.0,94,0.00,,,0.00,WeatherCatV1.23B16,2013-11-03 06:56:00,
2013-11-03 01:01:00,44.4,42.8,30.24,North,5,0.0,0.0,94,0.00,,,0.00,WeatherCatV1.23B16,2013-11-03 07:01:00,
2013-11-03 01:06:00,44.4,42.8,30.24,North,5,0.0,0.0,94,0.00,,,0.00,WeatherCatV1.23B16,2013-11-03 07:06:00,
2013-11-03 01:11:00,44.3,42.7,30.23,North,5,0.0,0.0,94,0.00,,,0.00,WeatherCatV1.23B16,2013-11-03 07:11:00,
2013-11-03 01:16:00,44.2,42.6,30.24,North,5,0.0,0.0,94,0.00,,,0.00,WeatherCatV1.23B16,2013-11-03 07:16:00,
2013-11-03 01:21:00,44.0,42.1,30.24,North,5,0.0,0.0,93,0.00,,,0.00,WeatherCatV1.23B16,2013-11-03 07:21:00,
2013-11-03 01:26:00,43.7,41.8,30.24,North,5,0.0,0.0,93,0.00,,,0.00,WeatherCatV1.23B16,2013-11-03 07:26:00,
2013-11-03 01:31:00,43.6,41.7,30.24,North,5,0.0,0.0,93,0.00,,,0.00,WeatherCatV1.23B16,2013-11-03 07:31:00,
2013-11-03 01:36:00,43.6,42.0,30.24,North,5,0.0,0.0,94,0.00,,,0.00,WeatherCatV1.23B16,2013-11-03 07:36:00,
2013-11-03 01:41:00,43.6,42.0,30.24,North,5,0.0,0.0,94,0.00,,,0.00,WeatherCatV1.23B16,2013-11-03 07:41:00,
2013-11-03 01:46:00,43.5,41.9,30.24,North,5,0.0,0.0,94,0.00,,,0.00,WeatherCatV1.23B16,2013-11-03 07:46:00,
2013-11-03 01:51:00,43.4,41.8,30.24,North,5,0.0,0.0,94,0.00,,,0.00,WeatherCatV1.23B16,2013-11-03 07:51:00,
2013-11-03 01:56:00,43.3,41.7,30.24,North,5,0.0,0.0,94,0.00,,,0.00,WeatherCatV1.23B16,2013-11-03 07:56:00,
2013-11-03 02:01:00,43.2,41.9,30.24,North,5,0.0,0.0,95,0.00,,,0.00,WeatherCatV1.23B16,2013-11-03 08:01:00,
2013-11-03 02:06:00,43.1,41.8,30.25,North,5,0.0,0.0,95,0.00,,,0.00,WeatherCatV1.23B16,2013-11-03 08:06:00,
2013-11-03 02:11:00,43.1,41.8,30.25,North,5,0.0,0.0,95,0.00,,,0.00,WeatherCatV1.23B16,2013-11-03 08:11:00,
2013-11-03 02:16:00,43.0,41.7,30.24,North,5,0.0,0.0,95,0.00,,,0.00,WeatherCatV1.23B16,2013-11-03 08:16:00,
2013-11-03 02:21:00,42.9,41.6,30.24,North,5,0.0,0.0,95,0.00,,,0.00,WeatherCatV1.23B16,2013-11-03 08:21:00,
2013-11-03 02:26:00,42.9,41.6,30.24,North,5,0.0,0.0,95,0.00,,,0.00,WeatherCatV1.23B16,2013-11-03 08:26:00,
2013-11-03 02:31:00,42.9,41.6,30.24,North,5,0.0,0.0,95,0.00,,,0.00,WeatherCatV1.23B16,2013-11-03 08:31:00,
2013-11-03 02:36:00,42.9,41.6,30.25,North,5,1.0,1.0,95,0.00,,,0.00,WeatherCatV1.23B16,2013-11-03 08:36:00,
2013-11-03 02:41:00,43.0,41.9,30.25,North,5,0.0,0.0,96,0.00,,,0.00,WeatherCatV1.23B16,2013-11-03 08:41:00,
2013-11-03 02:46:00,42.9,41.8,30.25,North,5,0.0,0.0,96,0.00,,,0.00,WeatherCatV1.23B16,2013-11-03 08:46:00,
2013-11-03 02:51:00,43.0,41.9,30.25,North,5,0.0,0.0,96,0.00,,,0.00,WeatherCatV1.23B16,2013-11-03 08:51:00,
2013-11-03 02:56:00,43.0,41.9,30.24,North,5,1.0,1.0,96,0.00,,,0.00,WeatherCatV1.23B16,2013-11-03 08:56:00,
2013-11-03 03:01:00,43.0,41.9,30.24,North,5,0.0,0.0,96,0.00,,,0.00,WeatherCatV1.23B16,2013-11-03 09:01:00,
2013-11-03 03:06:00,42.9,41.6,30.24,North,5,0.0,0.0,95,0.00,,,0.00,WeatherCatV1.23B16,2013-11-03 09:06:00,
2013-11-03 03:11:00,42.8,41.5,30.24,North,5,0.0,1.0,95,0.00,,,0.00,WeatherCatV1.23B16,2013-11-03 09:11:00,
2013-11-03 03:16:00,42.8,41.5,30.24,North,5,1.0,1.0,95,0.00,,,0.00,WeatherCatV1.23B16,2013-11-03 09:16:00,
2013-11-03 03:21:00,42.7,41.4,30.24,North,5,1.0,1.0,95,0.00,,,0.00,WeatherCatV1.23B16,2013-11-03 09:21:00,
2013-11-03 03:26:00,42.7,41.4,30.24,North,5,0.0,2.0,95,0.00,,,0.00,WeatherCatV1.23B16,2013-11-03 09:26:00,
2013-11-03 03:31:00,42.7,41.6,30.24,North,5,0.0,1.0,96,0.00,,,0.00,WeatherCatV1.23B16,2013-11-03 09:31:00,
2013-11-03 03:36:00,42.7,41.4,30.25,North,5,0.0,0.0,95,0.00,,,0.00,WeatherCatV1.23B16,2013-11-03 09:36:00,
2013-11-03 03:41:00,42.7,41.4,30.25,North,5,0.0,0.0,95,0.00,,,0.00,WeatherCatV1.23B16,2013-11-03 09:41:00,
2013-11-03 03:46:00,42.5,41.2,30.25,North,5,0.0,0.0,95,0.00,,,0.00,WeatherCatV1.23B16,2013-11-03 09:46:00,
2013-11-03 03:51:00,42.4,41.1,30.25,North,5,0.0,0.0,95,0.00,,,0.00,WeatherCatV1.23B16,2013-11-03 09:51:00,
2013-11-03 03:56:00,42.4,41.1,30.25,North,5,0.0,0.0,95,0.00,,,0.00,WeatherCatV1.23B16,2013-11-03 09:56:00,
2013-11-03 04:01:00,42.3,41.0,30.25,North,5,0.0,0.0,95,0.00,,,0.00,WeatherCatV1.23B16,2013-11-03 10:01:00,
2013-11-03 04:06:00,42.2,40.9,30.26,North,5,0.0,0.0,95,0.00,,,0.00,WeatherCatV1.23B16,2013-11-03 10:06:00,
2013-11-03 04:11:00,42.2,40.9,30.26,North,5,0.0,0.0,95,0.00,,,0.00,WeatherCatV1.23B16,2013-11-03 10:11:00,
2013-11-03 04:16:00,42.1,40.8,30.26,North,5,0.0,0.0,95,0.00,,,0.00,WeatherCatV1.23B16,2013-11-03 10:16:00,
2013-11-03 04:21:00,42.0,40.7,30.26,North,5,0.0,0.0,95,0.00,,,0.00,WeatherCatV1.23B16,2013-11-03 10:21:00,
2013-11-03 04:26:00,41.9,40.8,30.26,North,5,0.0,0.0,96,0.00,,,0.00,WeatherCatV1.23B16,2013-11-03 10:26:00,
2013-11-03 04:31:00,41.8,40.5,30.26,North,5,0.0,0.0,95,0.00,,,0.00,WeatherCatV1.23B16,2013-11-03 10:31:00,
2013-11-03 04:36:00,41.7,40.4,30.26,North,5,0.0,0.0,95,0.00,,,0.00,WeatherCatV1.23B16,2013-11-03 10:36:00,
2013-11-03 04:41:00,41.6,40.3,30.26,North,5,0.0,0.0,95,0.00,,,0.00,WeatherCatV1.23B16,2013-11-03 10:41:00,
2013-11-03 04:46:00,41.6,40.3,30.26,North,5,0.0,0.0,95,0.00,,,0.00,WeatherCatV1.23B16,2013-11-03 10:46:00,
2013-11-03 04:51:00,41.6,40.5,30.27,North,5,0.0,0.0,96,0.00,,,0.00,WeatherCatV1.23B16,2013-11-03 10:51:00,
2013-11-03 04:56:00,41.6,40.5,30.27,North,5,0.0,0.0,96,0.00,,,0.00,WeatherCatV1.23B16,2013-11-03 10:56:00,
2013-11-03 05:01:00,41.7,40.6,30.27,North,5,0.0,0.0,96,0.00,,,0.01,WeatherCatV1.23B16,2013-11-03 11:01:00,
2013-11-03 05:06:00,41.7,40.6,30.27,North,5,0.0,0.0,96,0.00,,,0.01,WeatherCatV1.23B16,2013-11-03 11:06:00,
2013-11-03 05:11:00,41.7,40.6,30.28,North,5,0.0,0.0,96,0.00,,,0.01,WeatherCatV1.23B16,2013-11-03 11:11:00,
2013-11-03 05:16:00,41.7,40.6,30.28,North,5,0.0,0.0,96,0.00,,,0.01,WeatherCatV1.23B16,2013-11-03 11:16:00,
2013-11-03 05:21:00,41.7,40.6,30.28,North,5,0.0,0.0,96,0.00,,,0.01,WeatherCatV1.23B16,2013-11-03 11:21:00,
2013-11-03 05:26:00,41.6,40.5,30.29,North,5,0.0,0.0,96,0.00,,,0.01,WeatherCatV1.23B16,2013-11-03 11:26:00,
2013-11-03 05:31:00,41.5,40.5,30.29,North,5,0.0,0.0,96,0.00,,,0.01,WeatherCatV1.23B16,2013-11-03 11:31:00,
2013-11-03 05:36:00,41.5,40.5,30.29,North,5,0.0,0.0,96,0.00,,,0.01,WeatherCatV1.23B16,2013-11-03 11:36:00,
2013-11-03 05:41:00,41.6,40.5,30.29,North,5,0.0,0.0,96,0.00,,,0.01,WeatherCatV1.23B16,2013-11-03 11:41:00,
2013-11-03 05:46:00,41.6,40.5,30.29,North,5,0.0,0.0,96,0.00,,,0.01,WeatherCatV1.23B16,2013-11-03 11:46:00,
2013-11-03 05:51:00,41.5,40.5,30.30,North,5,0.0,0.0,96,0.00,,,0.01,WeatherCatV1.23B16,2013-11-03 11:51:00,
2013-11-03 05:56:00,41.5,40.5,30.30,North,5,0.0,0.0,96,0.00,,,0.01,WeatherCatV1.23B16,2013-11-03 11:56:00,
2013-11-03 06:01:00,41.4,40.3,30.30,North,5,0.0,0.0,96,0.00,,,0.01,WeatherCatV1.23B16,2013-11-03 12:01:00,
2013-11-03 06:06:00,41.4,40.3,30.30,North,5,0.0,0.0,96,0.00,,,0.01,WeatherCatV1.23B16,2013-11-03 12:06:00,
2013-11-03 06:11:00,41.4,40.3,30.30,North,5,0.0,0.0,96,0.00,,,0.01,WeatherCatV1.23B16,2013-11-03 12:11:00,
2013-11-03 06:16:00,41.6,40.5,30.30,North,5,0.0,0.0,96,0.00,,,0.01,WeatherCatV1.23B16,2013-11-03 12:16:00,
2013-11-03 06:21:00,41.8,40.7,30.30,North,5,0.0,0.0,96,0.00,,,0.01,WeatherCatV1.23B16,2013-11-03 12:21:00,
2013-11-03 06:26:00,41.9,40.8,30.30,North,5,0.0,1.0,96,0.00,,,0.01,WeatherCatV1.23B16,2013-11-03 12:26:00,
2013-11-03 06:31:00,41.9,40.8,30.30,North,5,0.0,0.0,96,0.00,,,0.01,WeatherCatV1.23B16,2013-11-03 12:31:00,
2013-11-03 06:36:00,41.9,40.8,30.31,North,5,0.0,0.0,96,0.00,,,0.01,WeatherCatV1.23B16,2013-11-03 12:36:00,
2013-11-03 06:41:00,41.9,40.8,30.31,North,5,0.0,0.0,96,0.00,,,0.01,WeatherCatV1.23B16,2013-11-03 12:41:00,
2013-11-03 06:46:00,41.9,40.8,30.31,North,5,0.0,0.0,96,0.00,,,0.01,WeatherCatV1.23B16,2013-11-03 12:46:00,
2013-11-03 06:51:00,42.0,40.9,30.31,North,5,0.0,0.0,96,0.00,,,0.01,WeatherCatV1.23B16,2013-11-03 12:51:00,
2013-11-03 06:56:00,42.2,41.1,30.32,North,5,0.0,0.0,96,0.00,,,0.01,WeatherCatV1.23B16,2013-11-03 12:56:00,
2013-11-03 07:01:00,42.5,41.4,30.31,North,5,0.0,2.0,96,0.00,,,0.01,WeatherCatV1.23B16,2013-11-03 13:01:00,
2013-11-03 07:06:00,42.7,41.6,30.31,North,5,0.0,1.0,96,0.00,,,0.01,WeatherCatV1.23B16,2013-11-03 13:06:00,
2013-11-03 07:11:00,42.9,42.1,30.31,ENE,73,2.0,3.0,97,0.00,,,0.01,WeatherCatV1.23B16,2013-11-03 13:11:00,
2013-11-03 07:16:00,43.1,42.0,30.31,ENE,73,2.0,3.0,96,0.00,,,0.01,WeatherCatV1.23B16,2013-11-03 13:16:00,
2013-11-03 07:21:00,43.3,42.2,30.31,ENE,64,4.0,4.0,96,0.00,,,0.01,WeatherCatV1.23B16,2013-11-03 13:21:00,
2013-11-03 07:26:00,43.4,42.3,30.31,ENE,64,1.0,2.0,96,0.00,,,0.01,WeatherCatV1.23B16,2013-11-03 13:26:00,
2013-11-03 07:31:00,43.7,42.6,30.31,ENE,64,4.0,4.0,96,0.00,,,0.01,WeatherCatV1.23B16,2013-11-03 13:31:00,
2013-11-03 07:36:00,44.0,42.9,30.32,ENE,64,2.0,3.0,96,0.00,,,0.01,WeatherCatV1.23B16,2013-11-03 13:36:00,
2013-11-03 07:41:00,44.4,43.3,30.32,ENE,64,3.0,3.0,96,0.00,,,0.01,WeatherCatV1.23B16,2013-11-03 13:41:00,
2013-11-03 07:46:00,44.8,44.0,30.32,ENE,64,3.0,3.0,97,0.00,,,0.01,WeatherCatV1.23B16,2013-11-03 13:46:00,
2013-11-03 07:51:00,45.2,44.1,30.31,ENE,71,1.0,3.0,96,0.00,,,0.01,WeatherCatV1.23B16,2013-11-03 13:51:00,
2013-11-03 07:56:00,45.6,44.5,30.32,East,86,5.0,5.0,96,0.00,,,0.01,WeatherCatV1.23B16,2013-11-03 13:56:00,
2013-11-03 08:01:00,46.0,44.7,30.32,East,80,2.0,5.0,95,0.00,,,0.01,WeatherCatV1.23B16,2013-11-03 14:01:00,
2013-11-03 08:06:00,46.4,44.8,30.32,ENE,59,3.0,4.0,94,0.00,,,0.01,WeatherCatV1.23B16,2013-11-03 14:06:00,
2013-11-03 08:11:00,46.7,44.8,30.32,ENE,63,2.0,5.0,93,0.00,,,0.01,WeatherCatV1.23B16,2013-11-03 14:11:00,
2013-11-03 08:16:00,47.2,45.3,30.32,East,83,1.0,7.0,93,0.00,,,0.01,WeatherCatV1.23B16,2013-11-03 14:16:00,
2013-11-03 08:21:00,47.7,45.5,30.32,ENE,75,3.0,5.0,92,0.00,,,0.01,WeatherCatV1.23B16,2013-11-03 14:21:00,
2013-11-03 08:26:00,48.2,45.7,30.33,ENE,66,3.0,5.0,91,0.00,,,0.01,WeatherCatV1.23B16,2013-11-03 14:26:00,
2013-11-03 08:31:00,48.6,45.5,30.33,ENE,75,1.0,4.0,89,0.00,,,0.01,WeatherCatV1.23B16,2013-11-03 14:31:00,
2013-11-03 08:36:00,49.0,45.6,30.33,East,97,3.0,8.0,88,0.00,,,0.01,WeatherCatV1.23B16,2013-11-03 14:36:00,
2013-11-03 08:41:00,49.4,45.4,30.33,ENE,60,2.0,7.0,86,0.00,,,0.01,WeatherCatV1.23B16,2013-11-03 14:41:00,
2013-11-03 08:46:00,49.9,45.6,30.33,East,101,6.0,6.0,85,0.00,,,0.01,WeatherCatV1.23B16,2013-11-03 14:46:00,
2013-11-03 08:51:00,50.3,46.0,30.33,East,96,5.0,5.0,85,0.00,,,0.01,WeatherCatV1.23B16,2013-11-03 14:51:00,
2013-11-03 08:56:00,50.6,45.0,30.33,East,100,6.0,8.0,81,0.00,,,0.01,WeatherCatV1.23B16,2013-11-03 14:56:00,
2013-11-03 09:01:00,51.0,45.7,30.33,East,88,2.0,9.0,82,0.00,,,0.01,WeatherCatV1.23B16,2013-11-03 15:01:00,
2013-11-03 09:06:00,51.3,45.0,30.33,East,84,2.0,9.0,79,0.00,,,0.01,WeatherCatV1.23B16,2013-11-03 15:06:00,
2013-11-03 09:11:00,51.7,45.4,30.33,ENE,72,5.0,8.0,79,0.00,,,0.01,WeatherCatV1.23B16,2013-11-03 15:11:00,
2013-11-03 09:16:00,52.0,45.0,30.32,ESE,111,8.0,9.0,77,0.00,,,0.01,WeatherCatV1.23B16,2013-11-03 15:16:00,
2013-11-03 09:21:00,52.3,45.0,30.32,East,94,5.0,9.0,76,0.00,,,0.01,WeatherCatV1.23B16,2013-11-03 15:21:00,
2013-11-03 09:26:00,52.6,45.2,30.32,ENE,70,9.0,9.0,76,0.00,,,0.01,WeatherCatV1.23B16,2013-11-03 15:26:00,
2013-11-03 09:31:00,53.0,44.9,30.32,East,99,5.0,7.0,74,0.00,,,0.01,WeatherCatV1.23B16,2013-11-03 15:31:00,
2013-11-03 09:36:00,53.4,45.0,30.32,East,92,8.0,10.0,73,0.00,,,0.01,WeatherCatV1.23B16,2013-11-03 15:36:00,
2013-11-03 09:41:00,53.6,43.7,30.32,ESE,117,3.0,10.0,69,0.00,,,0.01,WeatherCatV1.23B16,2013-11-03 15:41:00,
2013-11-03 09:46:00,54.0,43.3,30.32,ESE,105,5.0,11.0,67,0.00,,,0.01,WeatherCatV1.23B16,2013-11-03 15:46:00,
2013-11-03 09:51:00,54.2,43.5,30.32,ESE,107,8.0,8.0,67,0.00,,,0.01,WeatherCatV1.23B16,2013-11-03 15:51:00,
2013-11-03 09:56:00,54.3,42.8,30.32,East,97,10.0,10.0,65,0.00,,,0.01,WeatherCatV1.23B16,2013-11-03 15:56:00,
2013-11-03 10:01:00,54.5,42.2,30.32,ESE,113,7.0,11.0,63,0.00,,,0.01,WeatherCatV1.23B16,2013-11-03 16:01:00,
2013-11-03 10:06:00,54.6,42.7,30.32,ENE,76,7.0,7.0,64,0.00,,,0.01,WeatherCatV1.23B16,2013-11-03 16:06:00,
2013-11-03 10:11:00,54.9,42.5,30.32,East,92,8.0,14.0,63,0.00,,,0.01,WeatherCatV1.23B16,2013-11-03 16:11:00,
2013-11-03 10:16:00,55.2,42.4,30.32,ESE,105,8.0,11.0,62,0.00,,,0.01,WeatherCatV1.23B16,2013-11-03 16:16:00,
2013-11-03 10:21:00,55.4,42.6,30.32,East,94,9.0,10.0,62,0.00,,,0.01,WeatherCatV1.23B16,2013-11-03 16:21:00,
2013-11-03 10:26:00,55.4,42.2,30.32,East,90,7.0,11.0,61,0.00,,,0.01,WeatherCatV1.23B16,2013-11-03 16:26:00,
2013-11-03 10:31:00,55.5,42.3,30.31,East,79,7.0,9.0,61,0.00,,,0.01,WeatherCatV1.23B16,2013-11-03 16:31:00,
2013-11-03 10:36:00,55.8,42.5,30.31,East,97,7.0,11.0,61,0.00,,,0.01,WeatherCatV1.23B16,2013-11-03 16:36:00,
2013-11-03 10:41:00,56.0,42.7,30.31,ESE,107,7.0,8.0,61,0.00,,,0.01,WeatherCatV1.23B16,2013-11-03 16:41:00,
2013-11-03 10:46:00,56.0,42.7,30.31,ENE,69,5.0,10.0,61,0.00,,,0.01,WeatherCatV1.23B16,2013-11-03 16:46:00,
2013-11-03 10:51:00,56.2,43.3,30.31,East,90,5.0,7.0,62,0.00,,,0.01,WeatherCatV1.23B16,2013-11-03 16:51:00,
2013-11-03 10:56:00,56.6,44.6,30.30,NE,50,3.0,8.0,64,0.00,,,0.01,WeatherCatV1.23B16,2013-11-03 16:56:00,
2013-11-03 11:01:00,56.9,44.0,30.30,East,85,7.0,13.0,62,0.00,,,0.01,WeatherCatV1.23B16,2013-11-03 17:01:00,
2013-11-03 11:06:00,56.9,43.2,30.30,NE,53,4.0,9.0,60,0.00,,,0.01,WeatherCatV1.23B16,2013-11-03 17:06:00,
2013-11-03 11:11:00,56.9,43.2,30.30,ESE,115,5.0,11.0,60,0.00,,,0.01,WeatherCatV1.23B16,2013-11-03 17:11:00,
2013-11-03 11:16:00,57.1,42.9,30.30,East,98,5.0,8.0,59,0.00,,,0.01,WeatherCatV1.23B16,2013-11-03 17:16:00,
2013-11-03 11:21:00,57.0,44.5,30.30,ENE,67,4.0,4.0,63,0.00,,,0.01,WeatherCatV1.23B16,2013-11-03 17:21:00,
2013-11-03 11:26:00,57.1,43.3,30.29,ESE,111,2.0,9.0,60,0.00,,,0.01,WeatherCatV1.23B16,2013-11-03 17:26:00,
2013-11-03 11:31:00,57.2,43.4,30.29,East,82,5.0,6.0,60,0.00,,,0.01,WeatherCatV1.23B16,2013-11-03 17:31:00,
2013-11-03 11:36:00,57.4,43.2,30.29,NE,47,5.0,9.0,59,0.00,,,0.01,WeatherCatV1.23B16,2013-11-03 17:36:00,
2013-11-03 11:42:00,57.3,43.1,30.29,East,88,5.0,7.0,59,0.00,,,0.01,WeatherCatV1.23B16,2013-11-03 17:42:00,
2013-11-03 11:47:00,57.6,42.9,30.29,NE,38,6.0,10.0,58,0.00,,,0.01,WeatherCatV1.23B16,2013-11-03 17:47:00,
2013-11-03 11:52:00,57.6,42.5,30.28,ENE,61,5.0,14.0,57,0.00,,,0.01,WeatherCatV1.23B16,2013-11-03 17:52:00,
2013-11-03 11:57:00,57.6,43.4,30.28,ENE,66,4.0,7.0,59,0.00,,,0.01,WeatherCatV1.23B16,2013-11-03 17:57:00,
2013-11-03 12:02:00,57.7,42.6,30.28,East,81,5.0,10.0,57,0.00,,,0.01,WeatherCatV1.23B16,2013-11-03 18:02:00,
2013-11-03 12:07:00,57.9,42.8,30.27,East,94,2.0,8.0,57,0.00,,,0.01,WeatherCatV1.23B16,2013-11-03 18:07:00,
2013-11-03 12:12:00,58.2,43.5,30.27,ESE,111,0.0,2.0,58,0.00,,,0.01,WeatherCatV1.23B16,2013-11-03 18:12:00,
2013-11-03 12:17:00,58.7,43.0,30.27,ESE,114,4.0,9.0,56,0.00,,,0.01,WeatherCatV1.23B16,2013-11-03 18:17:00,
2013-11-03 12:22:00,58.7,42.1,30.26,ENE,78,5.0,7.0,54,0.00,,,0.01,WeatherCatV1.23B16,2013-11-03 18:22:00,
2013-11-03 12:27:00,58.8,42.7,30.26,ESE,102,3.0,3.0,55,0.00,,,0.01,WeatherCatV1.23B16,2013-11-03 18:27:00,
2013-11-03 12:32:00,58.8,42.2,30.26,East,90,5.0,8.0,54,0.00,,,0.01,WeatherCatV1.23B16,2013-11-03 18:32:00,
2013-11-03 12:37:00,58.9,43.2,30.25,East,84,6.0,6.0,56,0.00,,,0.01,WeatherCatV1.23B16,2013-11-03 18:37:00,
2013-11-03 12:42:00,59.1,42.5,30.25,East,97,3.0,6.0,54,0.00,,,0.01,WeatherCatV1.23B16,2013-11-03 18:42:00,
2013-11-03 12:47:00,59.1,41.5,30.25,East,90,6.0,6.0,52,0.00,,,0.01,WeatherCatV1.23B16,2013-11-03 18:47:00,
2013-11-03 12:52:00,59.0,42.4,30.25,NNE,29,5.0,10.0,54,0.00,,,0.01,WeatherCatV1.23B16,2013-11-03 18:52:00,
2013-11-03 12:57:00,58.9,42.8,30.25,NE,49,3.0,8.0,55,0.00,,,0.01,WeatherCatV1.23B16,2013-11-03 18:57:00,
2013-11-03 13:02:00,59.1,41.5,30.24,East,86,5.0,6.0,52,0.00,,,0.01,WeatherCatV1.23B16,2013-11-03 19:02:00,
2013-11-03 13:07:00,59.2,42.6,30.24,ENE,61,5.0,7.0,54,0.00,,,0.01,WeatherCatV1.23B16,2013-11-03 19:07:00,
2013-11-03 13:12:00,59.1,42.5,30.24,NE,49,3.0,8.0,54,0.00,,,0.01,WeatherCatV1.23B16,2013-11-03 19:12:00,
2013-11-03 13:17:00,59.1,42.0,30.24,ENE,59,5.0,9.0,53,0.00,,,0.01,WeatherCatV1.23B16,2013-11-03 19:17:00,
2013-11-03 13:22:00,59.2,42.6,30.24,NE,42,5.0,9.0,54,0.00,,,0.01,WeatherCatV1.23B16,2013-11-03 19:22:00,
2013-11-03 13:27:00,59.3,40.7,30.23,East,98,7.0,8.0,50,0.00,,,0.01,WeatherCatV1.23B16,2013-11-03 19:27:00,
2013-11-03 13:32:00,59.2,42.1,30.23,NNE,20,4.0,5.0,53,0.00,,,0.01,WeatherCatV1.23B16,2013-11-03 19:32:00,
2013-11-03 13:37:00,59.2,44.0,30.23,NE,49,5.0,6.0,57,0.00,,,0.01,WeatherCatV1.23B16,2013-11-03 19:37:00,
2013-11-03 13:42:00,59.5,43.3,30.23,East,83,8.0,8.0,55,0.00,,,0.01,WeatherCatV1.23B16,2013-11-03 19:42:00,
2013-11-03 13:47:00,59.7,42.0,30.23,East,81,5.0,6.0,52,0.00,,,0.01,WeatherCatV1.23B16,2013-11-03 19:47:00,
2013-11-03 13:52:00,59.8,42.6,30.22,ENE,65,4.0,5.0,53,0.00,,,0.01,WeatherCatV1.23B16,2013-11-03 19:52:00,
2013-11-03 13:57:00,59.8,41.6,30.22,ENE,69,2.0,8.0,51,0.00,,,0.01,WeatherCatV1.23B16,2013-11-03 19:57:00,
2013-11-03 14:02:00,60.1,42.4,30.22,NE,50,4.0,7.0,52,0.00,,,0.01,WeatherCatV1.23B16,2013-11-03 20:02:00,
2013-11-03 14:07:00,60.0,40.8,30.22,East,90,3.0,6.0,49,0.00,,,0.01,WeatherCatV1.23B16,2013-11-03 20:07:00,
2013-11-03 14:12:00,60.0,41.8,30.21,East,82,8.0,8.0,51,0.00,,,0.01,WeatherCatV1.23B16,2013-11-03 20:12:00,
2013-11-03 14:17:00,60.0,42.8,30.21,East,86,2.0,7.0,53,0.00,,,0.01,WeatherCatV1.23B16,2013-11-03 20:17:00,
2013-11-03 14:22:00,60.0,41.8,30.21,NE,56,4.0,9.0,51,0.00,,,0.01,WeatherCatV1.23B16,2013-11-03 20:22:00,
2013-11-03 14:27:00,60.1,41.4,30.21,East,99,2.0,9.0,50,0.00,,,0.01,WeatherCatV1.23B16,2013-11-03 20:27:00,
2013-11-03 14:32:00,60.4,42.2,30.21,East,86,6.0,6.0,51,0.00,,,0.01,WeatherCatV1.23B16,2013-11-03 20:32:00,
2013-11-03 14:37:00,60.4,42.2,30.20,ENE,71,2.0,8.0,51,0.00,,,0.01,WeatherCatV1.23B16,2013-11-03 20:37:00,
2013-11-03 14:42:00,60.6,44.3,30.20,ENE,76,7.0,8.0,55,0.00,,,0.01,WeatherCatV1.23B16,2013-11-03 20:42:00,
2013-11-03 14:47:00,60.5,42.8,30.20,East,81,3.0,6.0,52,0.00,,,0.01,WeatherCatV1.23B16,2013-11-03 20:47:00,
2013-11-03 14:52:00,60.5,43.8,30.20,NE,40,5.0,7.0,54,0.00,,,0.01,WeatherCatV1.23B16,2013-11-03 20:52:00,
2013-11-03 14:57:00,60.5,43.8,30.19,ENE,73,2.0,8.0,54,0.00,,,0.01,WeatherCatV1.23B16,2013-11-03 20:57:00,
2013-11-03 15:02:00,60.6,43.9,30.19,ENE,74,2.0,7.0,54,0.00,,,0.01,WeatherCatV1.23B16,2013-11-03 21:02:00,
2013-11-03 15:07:00,60.8,43.1,30.19,East,81,5.0,7.0,52,0.00,,,0.01,WeatherCatV1.23B16,2013-11-03 21:07:00,
2013-11-03 15:12:00,60.7,43.5,30.18,ENE,78,7.0,7.0,53,0.00,,,0.01,WeatherCatV1.23B16,2013-11-03 21:12:00,
2013-11-03 15:17:00,60.6,43.4,30.19,East,95,3.0,7.0,53,0.00,,,0.01,WeatherCatV1.23B16,2013-11-03 21:17:00,
2013-11-03 15:22:00,60.5,42.8,30.19,East,90,5.0,8.0,52,0.00,,,0.01,WeatherCatV1.23B16,2013-11-03 21:22:00,
2013-11-03 15:27:00,60.6,43.4,30.19,East,84,6.0,6.0,53,0.00,,,0.01,WeatherCatV1.23B16,2013-11-03 21:27:00,
2013-11-03 15:32:00,60.6,42.4,30.18,East,82,2.0,5.0,51,0.00,,,0.01,WeatherCatV1.23B16,2013-11-03 21:32:00,
2013-11-03 15:37:00,60.6,42.4,30.18,ENE,74,7.0,9.0,51,0.00,,,0.01,WeatherCatV1.23B16,2013-11-03 21:37:00,
2013-11-03 15:42:00,60.5,41.8,30.18,ENE,63,3.0,6.0,50,0.00,,,0.01,WeatherCatV1.23B16,2013-11-03 21:42:00,
2013-11-03 15:47:00,60.5,42.3,30.17,ENE,63,0.0,1.0,51,0.00,,,0.01,WeatherCatV1.23B16,2013-11-03 21:47:00,
2013-11-03 15:52:00,60.6,42.9,30.18,East,96,3.0,4.0,52,0.00,,,0.01,WeatherCatV1.23B16,2013-11-03 21:52:00,
2013-11-03 15:57:00,60.6,43.4,30.17,East,86,2.0,8.0,53,0.00,,,0.01,WeatherCatV1.23B16,2013-11-03 21:57:00,
2013-11-03 16:02:00,60.5,42.3,30.18,East,92,3.0,7.0,51,0.00,,,0.01,WeatherCatV1.23B16,2013-11-03 22:02:00,
2013-11-03 16:07:00,60.4,42.7,30.18,East,93,2.0,5.0,52,0.00,,,0.01,WeatherCatV1.23B16,2013-11-03 22:07:00,
2013-11-03 16:12:00,60.3,43.1,30.17,East,94,2.0,3.0,53,0.00,,,0.01,WeatherCatV1.23B16,2013-11-03 22:12:00,
2013-11-03 16:17:00,60.3,43.6,30.17,East,86,2.0,5.0,54,0.00,,,0.01,WeatherCatV1.23B16,2013-11-03 22:17:00,
2013-11-03 16:22:00,60.2,43.5,30.17,ESE,104,4.0,4.0,54,0.00,,,0.01,WeatherCatV1.23B16,2013-11-03 22:22:00,
2013-11-03 16:27:00,60.0,42.8,30.17,East,95,2.0,3.0,53,0.00,,,0.01,WeatherCatV1.23B16,2013-11-03 22:27:00,
2013-11-03 16:32:00,60.0,42.8,30.18,East,96,1.0,5.0,53,0.00,,,0.01,WeatherCatV1.23B16,2013-11-03 22:32:00,
2013-11-03 16:37:00,59.8,42.6,30.18,ENE,73,2.0,3.0,53,0.00,,,0.01,WeatherCatV1.23B16,2013-11-03 22:37:00,
2013-11-03 16:42:00,59.8,44.1,30.18,ENE,73,0.0,1.0,56,0.00,,,0.01,WeatherCatV1.23B16,2013-11-03 22:42:00,
2013-11-03 16:47:00,59.6,43.9,30.18,ENE,73,0.0,0.0,56,0.00,,,0.01,WeatherCatV1.23B16,2013-11-03 22:47:00,
2013-11-03 16:52:00,59.5,43.8,30.18,ENE,73,1.0,1.0,56,0.00,,,0.01,WeatherCatV1.23B16,2013-11-03 22:52:00,
2013-11-03 16:57:00,59.3,44.5,30.18,ENE,73,0.0,0.0,58,0.00,,,0.01,WeatherCatV1.23B16,2013-11-03 22:57:00,
2013-11-03 17:02:00,59.0,45.6,30.18,ENE,73,0.0,0.0,61,0.00,,,0.01,WeatherCatV1.23B16,2013-11-03 23:02:00,
2013-11-03 17:07:00,58.6,45.2,30.18,ENE,73,0.0,0.0,61,0.00,,,0.01,WeatherCatV1.23B16,2013-11-03 23:07:00,
2013-11-03 17:12:00,58.0,45.5,30.19,ENE,73,0.0,0.0,63,0.00,,,0.01,WeatherCatV1.23B16,2013-11-03 23:12:00,
2013-11-03 17:17:00,57.5,45.4,30.19,ENE,73,0.0,0.0,64,0.00,,,0.01,WeatherCatV1.23B16,2013-11-03 23:17:00,
2013-11-03 17:22:00,56.9,44.8,30.19,ENE,73,0.0,0.0,64,0.00,,,0.01,WeatherCatV1.23B16,2013-11-03 23:22:00,
2013-11-03 17:27:00,56.3,47.8,30.19,ENE,73,0.0,1.0,73,0.00,,,0.01,WeatherCatV1.23B16,2013-11-03 23:27:00,
2013-11-03 17:32:00,55.9,47.4,30.20,ENE,73,0.0,0.0,73,0.00,,,0.01,WeatherCatV1.23B16,2013-11-03 23:32:00,
2013-11-03 17:37:00,55.5,47.7,30.20,ENE,73,0.0,0.0,75,0.00,,,0.01,WeatherCatV1.23B16,2013-11-03 23:37:00,
2013-11-03 17:42:00,55.1,47.3,30.20,ENE,73,0.0,0.0,75,0.00,,,0.01,WeatherCatV1.23B16,2013-11-03 23:42:00,
2013-11-03 17:47:00,54.7,47.3,30.20,ENE,73,0.0,0.0,76,0.00,,,0.01,WeatherCatV1.23B16,2013-11-03 23:47:00,
2013-11-03 17:52:00,54.3,47.2,30.20,ENE,73,0.0,0.0,77,0.00,,,0.01,WeatherCatV1.23B16,2013-11-03 23:52:00,
2013-11-03 17:57:00,53.8,46.8,30.21,ENE,73,0.0,0.0,77,0.00,,,0.01,WeatherCatV1.23B16,2013-11-03 23:57:00,
2013-11-03 18:02:00,53.3,45.9,30.21,ENE,73,0.0,0.0,76,0.00,,,0.01,WeatherCatV1.23B16,2013-11-04 00:02:00,
2013-11-03 18:07:00,53.0,45.6,30.21,ENE,73,0.0,0.0,76,0.00,,,0.01,WeatherCatV1.23B16,2013-11-04 00:07:00,
2013-11-03 18:12:00,52.7,45.3,30.21,ENE,73,0.0,0.0,76,0.00,,,0.01,WeatherCatV1.23B16,2013-11-04 00:12:00,
2013-11-03 18:17:00,52.4,45.1,30.21,ENE,73,0.0,0.0,76,0.00,,,0.01,WeatherCatV1.23B16,2013-11-04 00:17:00,
2013-11-03 18:22:00,52.2,45.5,30.21,ENE,73,0.0,0.0,78,0.00,,,0.01,WeatherCatV1.23B16,2013-11-04 00:22:00,
2013-11-03 18:27:00,52.0,46.0,30.21,ENE,73,0.0,0.0,80,0.00,,,0.01,WeatherCatV1.23B16,2013-11-04 00:27:00,
2013-11-03 18:32:00,51.8,45.2,30.21,ENE,73,0.0,0.0,78,0.00,,,0.01,WeatherCatV1.23B16,2013-11-04 00:32:00,
2013-11-03 18:37:00,51.5,44.9,30.22,ENE,73,0.0,0.0,78,0.00,,,0.01,WeatherCatV1.23B16,2013-11-04 00:37:00,
2013-11-03 18:42:00,51.3,45.3,30.22,ENE,73,0.0,0.0,80,0.00,,,0.01,WeatherCatV1.23B16,2013-11-04 00:42:00,
2013-11-03 18:47:00,51.1,45.2,30.22,ENE,73,0.0,0.0,80,0.00,,,0.01,WeatherCatV1.23B16,2013-11-04 00:47:00,
2013-11-03 18:52:00,50.8,44.5,30.22,ENE,73,0.0,0.0,79,0.00,,,0.01,WeatherCatV1.23B16,2013-11-04 00:52:00,
2013-11-03 18:57:00,50.5,44.6,30.21,ENE,73,0.0,0.0,80,0.00,,,0.01,WeatherCatV1.23B16,2013-11-04 00:57:00,
2013-11-03 19:02:00,50.3,44.7,30.21,ENE,73,0.0,2.0,81,0.00,,,0.01,WeatherCatV1.23B16,2013-11-04 01:02:00,
2013-11-03 19:07:00,50.3,45.3,30.21,ENE,73,0.0,0.0,83,0.00,,,0.01,WeatherCatV1.23B16,2013-11-04 01:07:00,
2013-11-03 19:12:00,50.4,45.8,30.21,ENE,73,1.0,1.0,84,0.00,,,0.01,WeatherCatV1.23B16,2013-11-04 01:12:00,
2013-11-03 19:17:00,50.3,45.7,30.21,ENE,73,1.0,1.0,84,0.00,,,0.01,WeatherCatV1.23B16,2013-11-04 01:17:00,
2013-11-03 19:22:00,50.1,45.5,30.21,ENE,73,0.0,1.0,84,0.00,,,0.01,WeatherCatV1.23B16,2013-11-04 01:22:00,
2013-11-03 19:27:00,49.9,45.3,30.21,ENE,73,0.0,0.0,84,0.00,,,0.01,WeatherCatV1.23B16,2013-11-04 01:27:00,
2013-11-03 19:32:00,49.7,45.4,30.21,ENE,73,0.0,1.0,85,0.00,,,0.01,WeatherCatV1.23B16,2013-11-04 01:32:00,
2013-11-03 19:37:00,49.5,45.2,30.21,ENE,73,1.0,2.0,85,0.00,,,0.01,WeatherCatV1.23B16,2013-11-04 01:37:00,
2013-11-03 19:42:00,49.5,44.9,30.21,ENE,73,1.0,1.0,84,0.00,,,0.01,WeatherCatV1.23B16,2013-11-04 01:42:00,
2013-11-03 19:47:00,49.7,44.8,30.21,ENE,73,1.0,2.0,83,0.00,,,0.01,WeatherCatV1.23B16,2013-11-04 01:47:00,
2013-11-03 19:52:00,49.9,44.9,30.21,ENE,73,1.0,2.0,83,0.00,,,0.01,WeatherCatV1.23B16,2013-11-04 01:52:00,
2013-11-03 19:57:00,50.0,45.0,30.21,ENE,73,0.0,1.0,83,0.00,,,0.01,WeatherCatV1.23B16,2013-11-04 01:57:00,
2013-11-03 20:02:00,49.9,44.9,30.21,ENE,73,1.0,2.0,83,0.00,,,0.01,WeatherCatV1.23B16,2013-11-04 02:02:00,
2013-11-03 20:07:00,49.7,44.4,30.21,ENE,73,1.0,1.0,82,0.00,,,0.01,WeatherCatV1.23B16,2013-11-04 02:07:00,
2013-11-03 20:12:00,49.7,44.4,30.21,ENE,73,0.0,1.0,82,0.00,,,0.01,WeatherCatV1.23B16,2013-11-04 02:12:00,
2013-11-03 20:17:00,49.7,44.4,30.21,ENE,73,0.0,1.0,82,0.00,,,0.01,WeatherCatV1.23B16,2013-11-04 02:17:00,
2013-11-03 20:22:00,49.6,44.3,30.21,ENE,73,1.0,2.0,82,0.00,,,0.01,WeatherCatV1.23B16,2013-11-04 02:22:00,
2013-11-03 20:27:00,49.5,44.5,30.21,ENE,73,1.0,2.0,83,0.00,,,0.01,WeatherCatV1.23B16,2013-11-04 02:27:00,
2013-11-03 20:32:00,49.4,44.8,30.22,ENE,73,1.0,2.0,84,0.00,,,0.01,WeatherCatV1.23B16,2013-11-04 02:32:00,
2013-11-03 20:37:00,49.2,44.9,30.22,ENE,73,1.0,2.0,85,0.00,,,0.01,WeatherCatV1.23B16,2013-11-04 02:37:00,
2013-11-03 20:42:00,49.0,45.3,30.23,ENE,73,1.0,1.0,87,0.00,,,0.01,WeatherCatV1.23B16,2013-11-04 02:42:00,
2013-11-03 20:47:00,48.8,45.1,30.23,ENE,73,1.0,1.0,87,0.00,,,0.01,WeatherCatV1.23B16,2013-11-04 02:47:00,
2013-11-03 20:52:00,48.7,45.0,30.23,ENE,73,0.0,0.0,87,0.00,,,0.01,WeatherCatV1.23B16,2013-11-04 02:52:00,
2013-11-03 20:57:00,48.6,44.9,30.23,ENE,73,0.0,2.0,87,0.00,,,0.01,WeatherCatV1.23B16,2013-11-04 02:57:00,
2013-11-03 21:02:00,48.7,45.0,30.23,ENE,73,0.0,1.0,87,0.00,,,0.01,WeatherCatV1.23B16,2013-11-04 03:02:00,
2013-11-03 21:07:00,49.0,45.3,30.23,ENE,73,0.0,2.0,87,0.00,,,0.01,WeatherCatV1.23B16,2013-11-04 03:07:00,
2013-11-03 21:12:00,49.2,44.9,30.23,ENE,73,1.0,1.0,85,0.00,,,0.01,WeatherCatV1.23B16,2013-11-04 03:12:00,
2013-11-03 21:17:00,49.3,44.4,30.23,ENE,73,2.0,2.0,83,0.00,,,0.01,WeatherCatV1.23B16,2013-11-04 03:17:00,
2013-11-03 21:22:00,49.6,44.3,30.23,ENE,73,2.0,2.0,82,0.00,,,0.01,WeatherCatV1.23B16,2013-11-04 03:22:00,
2013-11-03 21:27:00,49.7,44.1,30.22,ENE,73,1.0,2.0,81,0.00,,,0.01,WeatherCatV1.23B16,2013-11-04 03:27:00,
2013-11-03 21:32:00,49.8,44.2,30.22,ENE,73,2.0,2.0,81,0.00,,,0.01,WeatherCatV1.23B16,2013-11-04 03:32:00,
2013-11-03 21:37:00,49.8,44.2,30.22,ENE,73,1.0,1.0,81,0.00,,,0.01,WeatherCatV1.23B16,2013-11-04 03:37:00,
2013-11-03 21:42:00,49.7,44.1,30.22,ENE,73,0.0,2.0,81,0.00,,,0.01,WeatherCatV1.23B16,2013-11-04 03:42:00,
2013-11-03 21:47:00,49.7,44.1,30.23,ENE,73,1.0,2.0,81,0.00,,,0.01,WeatherCatV1.23B16,2013-11-04 03:47:00,
2013-11-03 21:52:00,49.7,44.1,30.23,ENE,73,1.0,3.0,81,0.00,,,0.01,WeatherCatV1.23B16,2013-11-04 03:52:00,
2013-11-03 21:57:00,49.9,44.3,30.22,ENE,73,3.0,4.0,81,0.00,,,0.01,WeatherCatV1.23B16,2013-11-04 03:57:00,
2013-11-03 22:02:00,50.2,44.3,30.22,ENE,73,3.0,3.0,80,0.00,,,0.01,WeatherCatV1.23B16,2013-11-04 04:02:00,
2013-11-03 22:07:00,50.5,43.9,30.22,ENE,73,1.0,3.0,78,0.00,,,0.01,WeatherCatV1.23B16,2013-11-04 04:07:00,
2013-11-03 22:12:00,50.6,44.0,30.22,ENE,73,2.0,3.0,78,0.00,,,0.01,WeatherCatV1.23B16,2013-11-04 04:12:00,
2013-11-03 22:17:00,50.7,43.8,30.22,ENE,73,2.0,3.0,77,0.00,,,0.01,WeatherCatV1.23B16,2013-11-04 04:17:00,
2013-11-03 22:22:00,50.8,43.8,30.21,East,94,2.0,5.0,77,0.00,,,0.01,WeatherCatV1.23B16,2013-11-04 04:22:00,
2013-11-03 22:27:00,50.9,43.6,30.21,East,101,2.0,3.0,76,0.00,,,0.01,WeatherCatV1.23B16,2013-11-04 04:27:00,
2013-11-03 22:32:00,51.0,43.7,30.21,ESE,107,2.0,4.0,76,0.00,,,0.01,WeatherCatV1.23B16,2013-11-04 04:32:00,
2013-11-03 22:37:00,51.2,43.5,30.21,East,98,5.0,7.0,75,0.00,,,0.01,WeatherCatV1.23B16,2013-11-04 04:37:00,
2013-11-03 22:42:00,51.3,43.3,30.21,East,101,3.0,5.0,74,0.00,,,0.01,WeatherCatV1.23B16,2013-11-04 04:42:00,
2013-11-03 22:47:00,51.4,43.4,30.22,East,86,3.0,5.0,74,0.00,,,0.01,WeatherCatV1.23B16,2013-11-04 04:47:00,
2013-11-03 22:52:00,51.6,43.6,30.21,ESE,109,3.0,5.0,74,0.00,,,0.01,WeatherCatV1.23B16,2013-11-04 04:52:00,
2013-11-03 22:57:00,51.7,43.3,30.22,ESE,113,3.0,3.0,73,0.00,,,0.01,WeatherCatV1.23B16,2013-11-04 04:57:00,
2013-11-03 23:01:00,51.8,43.4,30.22,ESE,113,2.0,2.0,73,0.00,,,0.01,WeatherCatV1.23B16,2013-11-04 05:01:00,
2013-11-03 23:02:00,51.8,43.4,30.22,ESE,113,4.0,4.0,73,0.00,,,0.01,WeatherCatV1.23B16,2013-11-04 05:02:00,
2013-11-03 23:07:00,51.8,43.1,30.22,ESE,108,2.0,2.0,72,0.00,,,0.01,WeatherCatV1.23B16,2013-11-04 05:07:00,
2013-11-03 23:12:00,51.9,43.2,30.22,ESE,108,1.0,2.0,72,0.00,,,0.01,WeatherCatV1.23B16,2013-11-04 05:12:00,
2013-11-03 23:17:00,51.8,43.4,30.22,ESE,103,1.0,2.0,73,0.00,,,0.01,WeatherCatV1.23B16,2013-11-04 05:17:00,
2013-11-03 23:22:00,51.7,43.3,30.23,ESE,103,0.0,2.0,73,0.00,,,0.01,WeatherCatV1.23B16,2013-11-04 05:22:00,
2013-11-03 23:27:00,51.6,43.2,30.23,ESE,103,0.0,2.0,73,0.00,,,0.01,WeatherCatV1.23B16,2013-11-04 05:27:00,
2013-11-03 23:32:00,51.5,43.1,30.22,ESE,103,1.0,1.0,73,0.00,,,0.01,WeatherCatV1.23B16,2013-11-04 05:32:00,
2013-11-03 23:37:00,51.2,43.2,30.23,ESE,103,1.0,2.0,74,0.00,,,0.01,WeatherCatV1.23B16,2013-11-04 05:37:00,
2013-11-03 23:42:00,51.1,43.1,30.22,ESE,103,2.0,3.0,74,0.00,,,0.01,WeatherCatV1.23B16,2013-11-04 05:42:00,
2013-11-03 23:47:00,51.0,43.4,30.22,ESE,103,2.0,3.0,75,0.00,,,0.01,WeatherCatV1.23B16,2013-11-04 05:47:00,
2013-11-03 23:52:00,50.9,43.3,30.22,ESE,103,0.0,3.0,75,0.00,,,0.01,WeatherCatV1.23B16,2013-11-04 05:52:00,
2013-11-03 23:57:00,50.8,43.2,30.22,ESE,103,0.0,2.0,75,0.00,,,0.01,WeatherCatV1.23B16,2013-11-04 05:57:00,